| time (UTC) | temp C | wind direction | speed KPH | gust KPH | rain 1hr cm | rain 24hr cm | rain mn cm | humidity % | barometer mb |
| 20260510104512 | 17 | 354 | 0.0 | 0.0 | 0.00 | 2.90 | 0.00 | 96 | 1015.2 |
| 20260510103015 | 17 | 354 | 0.0 | 0.0 | 0.00 | 2.90 | 0.00 | 96 | 1015.1 |
| 20260510101519 | 17 | 354 | 0.0 | 1.6 | 0.00 | 2.90 | 0.00 | 96 | 1014.9 |
| 20260510100023 | 17 | 358 | 0.0 | 3.2 | 0.00 | 2.90 | 0.00 | 96 | 1014.9 |
| 20260510094506 | 17 | 133 | 0.0 | 0.0 | 0.00 | 2.90 | 0.00 | 96 | 1014.9 |
| 20260510093014 | 17 | 132 | 0.0 | 0.0 | 0.00 | 2.90 | 0.00 | 96 | 1014.6 |
| 20260510091518 | 17 | 132 | 0.0 | 0.0 | 0.00 | 2.90 | 0.00 | 96 | 1014.8 |
| 20260510090022 | 17 | 133 | 0.0 | 0.0 | 0.00 | 2.90 | 0.00 | 96 | 1014.7 |
| 20260510084524 | 17 | 133 | 0.0 | 0.0 | 0.00 | 2.90 | 0.00 | 96 | 1014.7 |
| 20260510083010 | 17 | 133 | 0.0 | 0.0 | 0.00 | 2.90 | 0.00 | 96 | 1014.7 |
| 20260510081514 | 17 | 133 | 0.0 | 0.0 | 0.00 | 2.90 | 0.00 | 96 | 1014.4 |
| 20260510080036 | 17 | 133 | 0.0 | 0.0 | 0.00 | 2.90 | 0.00 | 96 | 1014.1 |
| 20260510074526 | 17 | 146 | 0.0 | 0.0 | 0.00 | 2.90 | 0.00 | 96 | 1014.1 |
| 20260510073037 | 17 | 146 | 0.0 | 0.0 | 0.00 | 2.90 | 0.00 | 96 | 1014.1 |
| 20260510071515 | 17 | 146 | 0.0 | 0.0 | 0.00 | 2.90 | 0.00 | 96 | 1014.1 |
| 20260510070014 | 17 | 146 | 0.0 | 0.0 | 0.00 | 2.90 | 0.00 | 96 | 1013.9 |
| 20260510064518 | 16 | 146 | 0.0 | 0.0 | 0.00 | 2.90 | 0.00 | 95 | 1014.0 |
| 20260510063029 | 16 | 174 | 0.0 | 0.0 | 0.00 | 2.90 | 0.00 | 95 | 1013.9 |
| 20260510061527 | 17 | 174 | 0.0 | 1.6 | 0.00 | 2.90 | 0.00 | 95 | 1013.8 |
| 20260510060031 | 17 | 152 | 0.0 | 0.0 | 0.00 | 2.90 | 0.00 | 95 | 1013.7 |
| 20260510054519 | 17 | 152 | 0.0 | 0.0 | 0.00 | 2.90 | 0.00 | 95 | 1013.7 |
| 20260510053022 | 17 | 356 | 0.0 | 0.0 | 0.00 | 2.90 | 0.00 | 95 | 1013.9 |
| 20260510051526 | 17 | 18 | 0.0 | 0.0 | 0.00 | 2.90 | 0.00 | 95 | 1014.0 |
| 20260510050026 | 17 | 101 | 0.0 | 0.0 | 0.00 | 2.90 | 0.00 | 95 | 1014.0 |
| 20260510044518 | 17 | 101 | 0.0 | 0.0 | 0.00 | 2.90 | 2.90 | 95 | 1014.0 |
| 20260510043018 | 17 | 180 | 0.0 | 0.0 | 0.00 | 2.90 | 2.90 | 95 | 1014.2 |
| 20260510041526 | 17 | 180 | 0.0 | 0.0 | 0.00 | 2.90 | 2.90 | 94 | 1014.3 |
| 20260510040026 | 17 | 180 | 0.0 | 0.0 | 0.00 | 2.90 | 2.90 | 94 | 1014.4 |
| 20260510034528 | 17 | 180 | 0.0 | 0.0 | 0.00 | 2.90 | 2.90 | 94 | 1014.5 |
| 20260510033014 | 17 | 253 | 0.0 | 1.6 | 0.00 | 2.90 | 2.90 | 94 | 1014.6 |
| 20260510031525 | 17 | 55 | 0.0 | 3.2 | 0.00 | 2.90 | 2.90 | 94 | 1014.0 |
| 20260510030023 | 17 | 251 | 1.6 | 3.2 | 0.00 | 2.90 | 2.90 | 94 | 1014.6 |
| 20260510024528 | 17 | 91 | 0.0 | 1.6 | 0.00 | 2.90 | 2.90 | 94 | 1014.4 |
| 20260510023026 | 18 | 91 | 0.0 | 1.6 | 0.00 | 2.90 | 2.90 | 93 | 1014.3 |
| 20260510021544 | 18 | 136 | 0.0 | 1.6 | 0.00 | 2.90 | 2.90 | 93 | 1014.4 |
| 20260510020022 | 18 | 103 | 0.0 | 0.0 | 0.00 | 2.90 | 2.90 | 93 | 1014.2 |
| 20260510014533 | 18 | 103 | 0.0 | 3.2 | 0.00 | 2.90 | 2.90 | 93 | 1014.2 |
| 20260510013031 | 18 | 153 | 0.0 | 1.6 | 0.00 | 2.90 | 2.90 | 92 | 1014.0 |
| 20260510011517 | 18 | 131 | 0.0 | 1.6 | 0.00 | 2.90 | 2.90 | 92 | 1013.7 |
| 20260510010033 | 19 | 118 | 0.0 | 1.6 | 0.00 | 2.90 | 2.90 | 91 | 1013.6 |
| 20260510004522 | 19 | 116 | 0.0 | 1.6 | 0.00 | 2.90 | 2.90 | 91 | 1013.8 |
| 20260510003026 | 19 | 13 | 0.0 | 1.6 | 0.00 | 2.90 | 2.90 | 90 | 1013.6 |
| 20260510001527 | 19 | 176 | 1.6 | 3.2 | 0.00 | 2.90 | 2.90 | 90 | 1013.5 |
| 20260510000016 | 19 | 217 | 0.0 | 4.8 | 0.00 | 2.90 | 2.90 | 89 | 1013.2 |
| 20260509234523 | 19 | 206 | 1.6 | 3.2 | 0.00 | 2.90 | 2.90 | 89 | 1012.9 |
| 20260509233026 | 20 | 148 | 1.6 | 4.8 | 0.00 | 2.90 | 2.90 | 88 | 1013.1 |
| 20260509231523 | 20 | 124 | 0.0 | 1.6 | 0.00 | 2.90 | 2.90 | 87 | 1012.8 |
| 20260509230035 | 20 | 232 | 3.2 | 6.4 | 0.00 | 2.90 | 2.90 | 86 | 1012.9 |
| 20260509224522 | 20 | 202 | 1.6 | 4.8 | 0.00 | 2.90 | 2.90 | 87 | 1012.9 |
| 20260509223003 | 20 | 174 | 3.2 | 11.3 | 0.00 | 2.90 | 2.90 | 87 | 1012.6 |
| 20260509221506 | 20 | 151 | 3.2 | 6.4 | 0.00 | 2.90 | 2.90 | 88 | 1012.4 |
| 20260509220011 | 20 | 136 | 1.6 | 6.4 | 0.00 | 2.90 | 2.90 | 88 | 1012.2 |
| 20260509214517 | 20 | 159 | 1.6 | 6.4 | 0.00 | 2.95 | 2.90 | 88 | 1012.1 |
| 20260509213020 | 20 | 176 | 1.6 | 4.8 | 0.00 | 2.95 | 2.90 | 87 | 1012.0 |
| 20260509211505 | 20 | 139 | 0.0 | 3.2 | 0.00 | 2.95 | 2.90 | 89 | 1012.1 |
| 20260509210007 | 20 | 134 | 1.6 | 4.8 | 0.00 | 3.02 | 2.90 | 88 | 1012.3 |
| 20260509204511 | 20 | 174 | 0.0 | 1.6 | 0.00 | 3.10 | 2.90 | 88 | 1012.5 |
| 20260509203023 | 20 | 204 | 0.0 | 4.8 | 0.00 | 3.17 | 2.90 | 88 | 1012.6 |
| 20260509201521 | 20 | 169 | 0.0 | 3.2 | 0.00 | 3.28 | 2.90 | 88 | 1012.5 |
| 20260509200006 | 20 | 252 | 0.0 | 3.2 | 0.00 | 3.30 | 2.90 | 88 | 1012.5 |
| 20260509194514 | 20 | 269 | 0.0 | 8.0 | 0.00 | 3.38 | 2.90 | 87 | 1012.5 |
| 20260509193021 | 20 | 290 | 3.2 | 8.0 | 0.00 | 3.48 | 2.90 | 86 | 1012.8 |
| 20260509191520 | 20 | 68 | 0.0 | 8.0 | 0.00 | 3.56 | 2.90 | 87 | 1012.9 |
| 20260509190026 | 20 | 209 | 0.0 | 6.4 | 0.00 | 3.66 | 2.90 | 86 | 1012.8 |
| 20260509184505 | 20 | 243 | 1.6 | 8.0 | 0.00 | 3.71 | 2.90 | 86 | 1012.7 |
| 20260509183015 | 20 | 176 | 0.0 | 4.8 | 0.00 | 3.78 | 2.90 | 87 | 1012.7 |
| 20260509181517 | 20 | 273 | 1.6 | 4.8 | 0.00 | 3.89 | 2.90 | 87 | 1012.6 |
| 20260509180020 | 20 | 252 | 0.0 | 0.0 | 0.00 | 4.01 | 2.90 | 87 | 1012.5 |
| 20260509174524 | 20 | 256 | 0.0 | 0.0 | 0.00 | 4.06 | 2.90 | 89 | 1012.7 |
| 20260509173007 | 19 | 148 | 0.0 | 0.0 | 0.00 | 4.17 | 2.90 | 90 | 1012.7 |
| 20260509171514 | 19 | 257 | 0.0 | 0.0 | 0.00 | 4.39 | 2.90 | 90 | 1013.0 |
| 20260509170021 | 19 | 240 | 0.0 | 0.0 | 0.00 | 4.50 | 2.90 | 89 | 1013.6 |
| 20260509164523 | 19 | 150 | 0.0 | 0.0 | 0.00 | 4.60 | 2.90 | 91 | 1013.7 |
| 20260509163030 | 18 | 154 | 3.2 | 8.0 | 0.00 | 4.70 | 2.90 | 91 | 1014.0 |
| 20260509161528 | 18 | 143 | 0.0 | 1.6 | 0.00 | 4.80 | 2.90 | 94 | 1013.7 |
| 20260509160031 | 17 | 150 | 1.6 | 3.2 | 0.00 | 4.88 | 2.90 | 94 | 1013.6 |
| 20260509154518 | 17 | 174 | 1.6 | 3.2 | 0.00 | 4.90 | 2.90 | 94 | 1013.5 |
| 20260509153038 | 17 | 173 | 0.0 | 1.6 | 0.00 | 4.90 | 2.90 | 95 | 1013.3 |
| 20260509151524 | 17 | 23 | 0.0 | 1.6 | 0.00 | 4.90 | 2.90 | 95 | 1013.2 |
| 20260509150030 | 17 | 23 | 0.0 | 1.6 | 0.03 | 4.93 | 2.90 | 95 | 1013.2 |
| 20260509144527 | 17 | 23 | 0.0 | 3.2 | 0.10 | 4.93 | 2.90 | 95 | 1013.3 |
| 20260509143020 | 17 | 154 | 0.0 | 0.0 | 0.30 | 4.93 | 2.90 | 96 | 1013.1 |
| 20260509141533 | 17 | 145 | 0.0 | 1.6 | 0.48 | 4.93 | 2.90 | 95 | 1012.6 |
| 20260509140026 | 17 | 156 | 1.6 | 11.3 | 0.64 | 4.90 | 2.87 | 95 | 1012.5 |
| 20260509134528 | 17 | 144 | 4.8 | 12.9 | 0.69 | 4.83 | 2.79 | 95 | 1012.5 |
| 20260509133022 | 17 | 116 | 1.6 | 8.0 | 0.61 | 4.62 | 2.59 | 95 | 1012.9 |
| 20260509131523 | 17 | 153 | 3.2 | 4.8 | 0.53 | 4.45 | 2.41 | 95 | 1013.2 |
| 20260509130007 | 17 | 110 | 0.0 | 3.2 | 0.43 | 4.27 | 2.24 | 95 | 1013.7 |
| 20260509124510 | 17 | 321 | 0.0 | 0.0 | 0.64 | 4.14 | 2.11 | 95 | 1014.5 |
| 20260509123016 | 17 | 296 | 0.0 | 3.2 | 1.22 | 4.01 | 1.98 | 95 | 1014.6 |
| 20260509121518 | 17 | 323 | 1.6 | 4.8 | 1.80 | 3.91 | 1.88 | 95 | 1014.1 |
| 20260509120023 | 17 | 282 | 3.2 | 11.3 | 1.78 | 3.84 | 1.80 | 95 | 1013.7 |
| 20260509114504 | 17 | 329 | 3.2 | 9.7 | 1.47 | 3.51 | 1.47 | 95 | 1014.3 |
| 20260509113012 | 17 | 264 | 4.8 | 27.4 | 0.76 | 2.79 | 0.76 | 96 | 1014.9 |
| 20260509111514 | 17 | 300 | 11.3 | 20.9 | 0.08 | 2.11 | 0.08 | 96 | 1014.1 |
| 20260509110020 | 17 | 174 | 0.0 | 1.6 | 0.03 | 2.06 | 0.03 | 96 | 1012.0 |